Theta_e
316 316 320 322 323 324 325 331 333 333 329 321 317 320 317 321 325 319 321 320 320 320 318 323 326 325 326 333 333 335 334 335 336 332 338 343 339 339 341 340 338 334 336 338 338 338 337 338 338 338 338 338 338 336 336 336 335 335 334 330 328 325 324 323 321 318 312 318 328 331 332 333 332 331 331 331 331 332 333 332 330 328 327 329 330 329 329 329 330 330 330 330 330 330 331 331 330
317 317 323 324 323 323 328 338 333 328 329 317 316 322 316 323 325 321 326 322 321 319 319 326 329 330 330 332 333 337 337 335 335 335 339 340 340 341 341 341 337 334 336 337 337 337 337 337 337 338 337 338 338 337 337 337 337 336 334 331 327 325 324 323 321 319 313 315 326 331 332 332 332 332 332 331 331 332 333 333 331 328 326 328 329 329 329 329 330 330 330 328 329 329 330 330 329
317 320 324 324 324 326 335 341 332 326 326 318 316 319 320 326 325 324 325 321 322 321 322 326 326 326 330 337 337 336 335 335 339 339 339 340 341 341 341 341 336 334 335 337 338 337 337 337 337 338 337 338 338 338 338 337 337 336 334 331 327 325 324 323 321 319 313 314 325 331 332 331 331 331 331 331 332 332 332 331 330 329 326 327 329 329 328 329 330 330 329 328 328 328 329 329 329
319 323 324 324 331 335 340 337 334 330 320 319 316 316 326 327 325 323 321 321 322 322 323 325 323 320 333 346 337 339 339 336 339 339 340 340 341 341 341 340 337 335 335 337 338 338 338 337 337 338 337 338 338 338 338 337 337 336 335 332 329 327 325 324 321 318 313 315 325 331 332 331 330 330 330 331 332 332 331 329 329 328 325 327 328 328 328 328 329 329 329 329 328 328 327 328 328
320 323 323 324 332 336 336 329 334 333 318 321 319 318 327 324 324 322 320 321 320 322 324 326 323 319 332 337 332 341 341 337 339 338 340 340 341 341 340 340 337 335 336 337 338 338 337 338 338 338 338 338 339 338 337 337 337 336 335 332 330 328 326 324 322 319 313 315 325 331 332 331 330 329 330 331 331 331 330 329 329 327 325 327 328 328 328 328 329 329 329 329 329 329 328 328 327
321 323 324 322 324 328 333 322 321 325 320 327 324 323 327 322 323 322 320 320 319 321 322 324 323 325 334 331 330 337 336 338 340 338 340 340 341 341 340 339 337 337 337 337 337 337 337 337 337 338 338 338 339 338 337 337 337 337 335 333 330 329 327 324 322 320 314 312 321 329 331 330 329 329 331 331 330 330 330 330 330 328 325 326 328 328 328 328 329 328 328 329 329 330 329 328 327
321 323 327 326 325 327 333 323 317 322 319 323 328 325 324 321 321 321 320 320 320 319 320 323 326 332 333 329 330 333 334 336 338 338 340 340 341 340 340 339 337 337 337 337 337 337 337 337 337 338 338 338 338 338 338 337 337 337 336 334 332 330 327 325 323 320 315 311 315 325 330 330 329 330 331 331 331 331 331 331 331 329 325 326 328 328 327 328 328 328 328 329 329 329 328 328 327
322 323 331 335 334 334 333 324 320 325 319 319 325 322 322 321 320 321 321 322 321 318 318 320 326 330 327 331 336 335 335 336 337 340 340 341 341 341 341 340 337 337 338 337 337 337 337 337 337 337 338 338 337 338 338 337 337 336 336 335 334 331 328 326 324 321 317 311 311 318 327 330 329 330 331 332 332 331 332 331 330 328 324 324 327 328 328 327 328 327 327 328 328 328 328 328 327
321 320 328 331 334 336 327 319 317 320 319 320 321 320 322 319 320 322 321 321 319 319 319 317 324 326 328 339 340 334 336 337 338 339 340 340 340 341 341 340 338 338 338 338 336 336 336 336 337 337 337 336 337 338 338 337 337 336 336 335 335 332 329 327 325 323 319 313 310 314 323 329 329 328 328 330 331 331 331 330 329 327 323 324 326 326 327 327 327 326 325 326 326 327 327 327 327
324 322 326 331 336 333 318 316 319 317 319 320 320 322 321 318 320 321 320 319 317 320 319 318 325 327 332 341 337 333 337 338 338 339 339 339 340 341 340 340 339 339 340 339 337 335 335 334 336 336 336 336 336 337 337 337 337 336 335 335 335 332 330 328 326 324 320 316 311 312 319 326 329 328 326 328 329 330 330 329 328 325 323 324 325 325 325 326 327 324 323 323 324 325 325 326 326
330 327 334 336 330 325 318 319 318 317 318 318 318 319 319 318 319 319 321 319 319 322 318 319 327 330 332 334 334 333 335 338 339 338 338 340 340 340 340 340 340 341 341 339 337 336 334 332 334 334 334 335 335 337 337 336 336 336 335 335 335 333 331 329 327 325 322 319 314 312 315 320 325 327 327 327 328 328 328 328 327 325 324 324 325 324 324 325 326 323 322 322 322 323 323 324 325
330 331 345 336 324 324 324 321 317 318 317 316 318 317 317 317 318 319 322 320 321 322 319 319 323 330 331 329 331 332 335 338 337 337 338 340 340 340 341 341 341 340 341 340 338 336 334 331 332 334 334 334 334 336 336 336 336 335 335 335 335 333 331 330 328 327 324 321 317 313 312 314 318 321 323 325 327 327 327 326 326 325 323 323 324 324 324 325 324 322 322 322 321 322 322 323 323
331 334 342 326 323 327 323 320 319 320 317 319 319 316 317 317 319 321 322 322 322 320 318 317 319 329 331 328 330 330 334 337 337 337 338 340 340 340 340 340 341 340 341 340 338 336 335 330 330 332 333 333 333 335 336 335 335 335 335 334 335 333 332 330 329 328 325 323 319 315 313 312 314 316 317 320 323 325 325 325 324 323 321 321 323 324 323 322 322 322 322 321 321 321 321 322 322
329 339 343 324 324 327 323 321 319 319 318 322 320 316 318 317 318 318 321 322 321 320 316 314 320 331 331 328 332 331 334 336 337 338 338 341 339 339 339 340 341 340 341 341 338 337 335 331 330 331 331 332 332 333 336 335 335 334 335 334 334 334 332 331 330 329 327 324 321 317 314 312 314 316 316 316 317 320 322 323 323 322 320 320 321 323 323 321 320 321 321 321 321 320 320 320 320
324 344 346 328 324 321 322 321 321 324 319 320 319 318 318 316 317 316 318 321 320 318 314 314 318 323 327 335 339 331 333 336 336 338 338 339 338 339 340 340 341 340 341 341 339 336 336 333 331 332 331 332 330 331 334 335 335 334 334 334 334 334 333 331 330 329 328 326 323 320 316 314 314 315 315 314 313 315 318 320 321 321 320 320 319 321 322 320 320 321 321 320 320 320 320 320 320
332 348 339 324 320 316 319 320 322 324 319 320 318 318 319 314 316 316 315 320 318 316 317 316 315 317 323 333 334 328 332 336 336 336 337 338 339 340 340 340 340 341 341 341 339 336 336 334 333 334 333 333 331 331 333 333 334 334 334 334 334 334 333 332 330 330 329 327 325 322 319 317 316 315 314 312 309 309 313 315 316 316 318 319 318 318 319 318 319 320 320 320 319 319 319 319 319
336 343 334 321 319 317 317 319 321 322 320 321 317 317 320 315 316 314 312 317 317 318 321 318 319 326 330 329 324 326 334 335 335 336 336 339 340 340 341 341 341 341 341 340 339 337 336 336 334 334 334 334 332 331 331 332 333 334 334 333 333 334 333 332 331 330 330 328 326 324 322 320 319 317 316 313 308 306 308 308 307 309 313 316 315 315 316 317 319 319 319 320 319 319 319 319 319
329 333 333 322 321 320 316 320 322 321 320 319 317 318 320 317 316 314 314 317 316 318 319 322 330 330 330 328 324 329 335 335 336 336 337 339 340 340 340 341 341 341 341 341 339 337 336 336 336 335 335 335 334 332 331 331 332 333 334 333 333 333 333 332 331 331 330 329 327 326 323 321 321 320 319 315 308 304 305 305 303 304 308 310 310 313 315 316 318 319 319 320 320 320 319 319 319
328 333 330 328 332 321 314 319 318 319 319 319 318 318 319 317 317 315 315 316 315 319 317 324 342 336 329 330 328 333 335 334 336 335 337 338 338 339 339 340 341 341 341 341 340 338 336 336 337 336 335 336 335 334 332 331 331 332 333 333 333 333 334 333 332 331 331 330 328 327 325 323 322 321 320 318 311 304 303 304 303 303 305 305 308 313 315 315 318 318 319 319 320 320 319 319 319
328 335 328 330 334 321 315 317 317 318 318 319 318 316 316 316 316 314 316 317 315 321 319 321 340 340 333 331 330 333 333 333 335 335 336 336 338 339 339 340 340 341 341 341 340 339 338 337 337 337 336 336 336 335 334 332 331 332 332 332 333 333 334 333 332 331 331 330 329 328 326 324 323 322 320 319 315 307 302 302 302 303 303 305 308 313 313 313 316 318 318 318 318 318 318 319 319
321 332 332 327 324 319 317 316 318 317 315 318 318 315 315 315 314 314 316 317 315 318 320 319 330 338 333 331 330 331 331 332 332 334 335 335 337 337 338 339 340 340 340 341 340 339 339 338 337 337 337 337 336 336 336 334 333 332 331 332 332 333 333 333 333 331 331 331 330 329 327 325 324 323 321 320 317 311 304 301 302 302 303 306 308 310 311 312 314 316 317 317 316 315 316 318 319
318 320 324 323 318 318 317 317 319 316 315 317 317 315 315 315 314 316 317 317 319 317 318 318 322 333 332 330 329 329 329 330 330 332 332 334 335 336 337 338 339 339 340 341 340 339 338 339 339 338 338 337 337 337 337 336 334 333 332 331 331 332 333 333 333 332 331 331 330 330 327 326 324 323 322 321 319 314 307 302 301 301 303 307 308 309 310 310 310 312 313 314 314 314 316 318 319
320 315 316 319 317 318 317 317 318 316 317 317 317 316 315 316 315 316 316 316 322 319 318 316 315 326 331 329 328 329 329 328 329 330 331 332 333 334 336 336 338 338 338 339 339 339 338 338 338 338 338 337 338 337 337 337 336 335 333 332 331 331 333 333 333 332 332 331 331 330 328 326 325 324 323 322 320 316 310 305 301 302 304 308 309 308 308 309 308 309 310 311 313 315 316 318 319
323 318 315 316 315 317 316 316 318 319 319 317 316 315 315 318 316 315 315 317 322 318 315 310 310 323 329 328 328 328 328 328 328 330 331 332 333 333 335 336 337 336 337 337 338 338 338 338 338 338 338 337 338 337 337 337 337 337 335 334 332 331 332 332 333 332 332 331 331 330 328 327 326 325 324 323 321 318 313 308 303 302 304 307 309 308 307 308 308 308 309 311 314 315 317 318 319
320 318 316 316 316 317 316 316 319 319 318 316 316 316 317 318 314 315 317 320 322 317 313 311 315 325 328 329 330 326 326 327 327 329 329 330 331 331 332 333 335 335 335 336 336 337 336 337 337 338 338 337 338 337 337 338 337 337 336 336 334 332 332 331 332 332 332 331 330 330 328 328 327 326 325 324 323 320 315 310 304 302 304 306 307 307 307 307 307 308 309 311 313 315 317 318 318
317 318 317 317 315 315 315 315 317 318 317 315 316 317 317 315 314 317 321 321 320 319 319 318 324 331 330 329 329 325 325 325 326 327 328 328 329 328 329 329 331 333 333 334 335 335 335 335 336 337 337 337 337 338 337 338 338 337 337 337 336 334 333 332 331 332 332 331 330 330 329 328 328 328 327 325 324 322 317 311 305 302 303 305 306 306 307 307 307 307 309 311 313 315 316 317 317
317 319 317 317 316 315 315 315 316 317 316 316 317 317 317 315 315 319 321 318 316 321 322 318 326 335 329 328 327 324 323 324 325 326 326 327 327 328 328 328 329 329 331 333 333 333 335 335 335 335 336 336 337 338 337 338 338 336 336 337 337 336 335 334 332 332 332 332 331 330 330 329 329 328 328 327 325 323 319 314 306 302 304 305 305 306 307 307 307 308 309 311 313 314 315 316 317
317 318 316 317 318 315 315 316 315 316 315 316 318 316 316 315 316 320 318 314 315 321 324 319 324 329 324 326 326 322 321 323 324 324 324 325 326 328 328 329 329 329 330 330 330 332 334 335 335 335 335 335 336 337 337 338 338 337 336 336 337 337 336 336 335 333 332 332 332 331 331 331 330 330 329 328 326 324 322 318 309 304 304 305 305 306 307 308 308 308 309 311 312 313 314 315 315
317 319 318 318 321 319 315 315 316 316 315 316 316 313 315 317 318 319 315 315 315 318 323 321 321 322 320 322 323 321 319 320 322 322 324 324 325 327 327 326 327 329 330 329 330 332 333 334 335 335 335 334 334 335 336 337 337 337 337 336 337 337 336 336 335 335 334 333 333 332 332 332 331 331 330 330 328 326 324 321 314 308 306 305 306 308 309 310 309 308 308 310 311 312 313 314 314
317 318 321 321 322 321 315 314 316 315 316 316 313 311 317 319 317 315 314 315 315 316 320 320 319 319 317 317 319 320 317 316 319 321 323 323 323 325 325 323 326 328 329 330 331 331 332 333 334 334 334 333 333 335 335 336 337 337 337 336 336 336 337 336 336 336 335 334 333 333 333 332 332 331 331 330 329 327 324 322 316 310 307 306 307 310 310 310 309 309 309 309 310 311 312 312 313
317 314 323 325 317 319 320 316 316 315 315 316 312 312 319 321 317 315 314 315 315 318 319 317 317 317 316 316 315 317 315 313 316 319 321 321 321 322 322 321 325 328 329 330 331 330 331 331 333 333 333 333 332 334 335 335 336 336 336 335 335 336 336 336 336 336 336 335 334 334 334 333 333 332 332 331 329 327 325 322 316 310 307 306 308 311 311 310 309 309 309 309 309 309 310 310 311
322 314 321 325 314 320 325 317 317 317 315 315 313 314 319 319 317 315 314 314 315 319 320 317 317 316 316 316 314 315 314 311 312 316 319 320 320 321 320 319 322 326 327 328 330 331 331 331 332 332 333 332 331 333 335 335 335 335 336 335 335 335 335 335 335 335 336 335 335 334 334 334 334 333 332 331 329 327 326 323 317 311 307 307 309 311 311 310 309 308 308 309 309 307 307 307 307
327 318 320 323 316 319 322 317 317 318 317 316 313 315 320 318 316 317 316 315 315 318 321 318 317 317 316 316 314 314 313 311 310 311 314 318 320 320 319 319 320 322 324 327 329 330 331 331 331 331 332 332 331 332 334 335 335 335 335 335 334 334 333 333 333 334 334 335 335 335 335 335 334 334 333 331 329 328 327 325 320 315 309 308 311 312 311 309 308 307 306 306 308 307 305 304 303
322 318 319 322 320 318 319 320 318 317 317 317 315 315 320 320 318 320 319 317 317 319 321 322 320 318 317 316 315 314 314 314 312 309 312 315 318 319 319 319 319 320 321 325 328 330 331 331 331 331 332 332 331 331 332 334 334 334 334 333 333 333 333 333 332 333 333 333 334 334 335 335 334 334 334 332 330 329 328 326 323 318 311 308 311 312 310 308 306 306 305 303 304 305 304 302 299
321 319 320 319 318 317 320 321 317 316 316 317 317 317 320 320 317 318 317 315 317 320 321 321 321 319 318 316 315 314 314 315 313 310 311 314 316 317 318 319 320 320 321 323 327 330 331 331 331 331 332 332 331 331 331 332 332 333 332 332 332 331 332 333 333 333 332 333 333 334 334 334 334 334 334 334 331 329 327 325 323 319 313 309 311 311 309 307 305 304 304 302 301 301 301 299 297
327 327 330 325 319 317 318 319 315 315 316 318 319 318 320 320 316 317 315 313 316 319 319 318 317 316 315 315 315 314 314 315 312 310 312 313 314 316 317 318 319 320 321 322 325 329 330 331 331 331 331 331 331 331 331 331 331 332 332 330 329 330 330 331 331 332 332 332 332 332 333 332 332 333 335 333 330 328 325 323 322 319 315 311 311 311 309 309 307 303 302 302 299 297 296 296 296
324 325 328 325 320 318 317 318 316 314 315 318 318 317 318 318 316 317 313 311 313 316 317 316 315 314 314 314 315 315 315 314 311 311 312 313 313 314 315 317 320 321 322 323 325 327 329 330 330 331 331 330 330 330 330 330 330 330 331 330 329 328 328 328 328 329 329 329 330 330 330 330 330 332 334 333 329 328 327 325 323 320 317 313 312 313 312 311 309 304 302 301 299 296 294 294 294
321 323 326 322 319 319 315 316 318 316 314 317 318 316 317 317 316 315 312 311 312 314 315 315 315 314 314 314 315 315 314 313 312 311 311 312 314 313 314 316 319 321 322 323 324 326 328 330 330 330 330 330 330 329 329 328 328 329 330 330 330 329 327 327 327 327 327 327 328 329 329 329 330 331 332 332 329 328 327 326 324 322 320 316 313 311 310 308 306 304 303 300 297 296 294 292 293
327 324 323 320 318 317 316 318 320 316 314 319 322 319 317 316 314 314 313 313 312 311 312 313 314 314 313 314 314 314 314 315 316 313 310 311 313 313 313 315 317 319 321 321 323 325 327 329 330 330 329 329 329 328 328 327 327 328 328 328 328 328 327 327 327 327 327 327 328 329 329 330 331 330 331 332 331 329 327 326 326 324 321 319 317 312 309 306 304 303 304 301 297 294 293 292 292
329 326 320 318 320 318 317 317 317 316 314 316 321 320 316 315 317 318 316 313 312 312 312 313 313 314 314 314 314 314 315 316 316 316 312 309 311 312 312 314 316 318 319 321 322 324 327 328 329 329 329 328 328 327 327 327 327 327 326 326 326 326 325 325 325 325 325 326 327 328 329 330 331 331 331 332 332 331 328 326 326 325 322 320 318 315 311 308 306 303 302 301 298 294 292 291 292
324 335 332 323 321 320 318 317 317 318 316 317 317 318 321 323 327 333 326 315 314 316 316 316 316 314 313 314 314 314 315 315 315 317 315 309 309 312 313 314 315 317 318 319 321 323 325 326 328 328 328 328 327 327 326 326 326 325 324 323 323 322 322 322 323 323 323 325 326 327 328 329 329 330 330 331 331 331 329 327 325 324 323 320 316 315 313 310 308 306 303 301 301 300 295 291 291
316 329 331 323 324 324 322 321 321 321 319 317 315 315 325 330 328 329 324 316 315 316 315 316 317 315 314 315 313 312 314 316 315 316 315 310 309 312 313 314 314 316 318 318 319 321 322 324 325 326 327 327 326 326 325 325 324 324 323 321 321 320 319 319 320 321 322 322 324 325 326 327 327 327 328 329 329 328 329 328 326 325 323 320 317 315 314 311 309 307 305 303 303 305 300 293 291
311 317 322 325 331 329 324 321 318 321 319 314 315 316 321 321 317 318 317 314 314 313 314 317 315 312 313 315 315 316 318 320 320 319 318 313 310 311 312 313 314 315 316 317 319 320 321 322 323 324 325 325 325 325 324 324 323 322 322 321 321 320 319 319 319 320 320 320 321 322 323 324 324 325 326 326 327 326 326 326 326 326 323 321 320 318 316 314 311 308 306 305 303 302 300 295 292
313 317 324 328 331 329 329 326 319 321 319 319 325 322 319 318 314 317 317 316 318 318 320 322 316 311 311 314 318 321 324 325 324 326 329 319 310 311 313 313 315 315 316 317 318 319 320 321 322 323 324 324 324 324 323 322 322 322 321 321 320 319 319 319 318 318 318 318 318 319 319 320 321 322 323 323 324 324 323 323 324 325 324 323 322 320 318 315 311 307 304 303 301 299 300 299 295
316 320 325 327 329 332 337 334 325 323 316 319 327 318 315 323 323 322 318 315 320 322 321 322 318 314 314 315 316 319 325 328 327 333 335 319 309 311 314 314 315 315 315 316 317 318 319 320 321 321 322 322 322 322 321 321 320 320 320 319 318 318 318 317 317 316 316 315 315 316 316 316 316 317 318 320 321 320 320 321 323 324 324 323 322 321 319 315 310 307 303 302 301 299 300 300 298
318 319 323 326 329 331 335 331 323 323 318 319 325 315 312 321 326 326 317 314 320 323 322 321 320 322 324 324 323 326 331 330 330 332 322 311 310 313 313 314 315 315 315 316 316 317 318 318 319 319 319 319 319 319 319 319 319 318 318 318 317 317 316 316 315 314 314 313 313 313 312 312 311 312 314 315 316 316 318 320 322 323 323 322 321 319 317 313 309 307 305 304 302 300 300 299 299
317 325 328 328 330 332 336 334 323 317 319 325 325 317 311 315 326 328 317 317 321 320 322 323 327 337 342 341 336 335 337 329 327 328 315 307 311 314 313 314 314 314 315 315 315 316 316 317 317 318 318 318 318 318 318 318 317 317 317 317 317 316 316 315 313 312 312 312 311 311 311 310 309 310 312 314 314 315 317 320 320 321 321 320 319 317 314 313 311 309 307 304 302 301 300 299 299
321 331 330 322 326 328 332 333 323 314 320 327 325 318 312 313 323 325 319 321 320 317 319 321 329 346 353 351 341 335 335 331 329 329 321 313 313 313 312 313 314 314 314 314 314 315 315 315 315 316 316 316 317 317 317 317 317 317 316 316 316 316 315 314 313 312 311 311 311 311 310 310 309 310 311 313 315 317 318 318 319 319 320 319 319 317 315 314 313 312 309 305 303 302 300 299 298
323 324 323 315 319 321 322 327 324 320 320 319 319 319 315 315 318 319 321 324 323 321 321 318 325 342 351 349 343 337 336 336 335 332 327 324 318 311 312 314 314 314 314 314 314 314 314 314 314 315 315 315 316 316 316 316 316 316 315 315 315 314 314 313 312 312 311 311 311 311 310 309 309 309 310 312 315 316 317 318 318 318 319 319 319 318 316 315 314 312 310 306 304 302 301 300 300
318 317 320 318 319 319 320 323 319 319 320 315 315 318 318 320 319 318 319 317 320 322 320 320 326 340 348 344 341 339 334 333 334 331 332 329 315 307 310 314 313 313 313 313 313 312 313 313 313 314 314 314 315 315 315 315 315 315 315 314 314 314 313 313 312 311 311 311 311 311 310 309 308 308 308 310 313 315 317 317 318 319 319 318 318 318 318 317 315 313 310 306 304 302 302 301 301
318 319 317 318 325 324 322 322 318 317 320 317 314 317 324 323 317 317 319 318 320 317 315 321 327 332 333 332 337 341 337 335 331 329 331 322 307 306 311 312 312 313 312 312 312 312 312 313 313 313 314 314 314 314 315 314 314 314 314 314 313 313 313 312 312 311 311 311 311 310 310 309 308 307 307 308 310 313 315 317 318 319 319 318 318 318 318 317 315 312 309 306 304 304 303 302 301
318 318 314 315 322 322 316 317 320 319 319 319 316 320 327 322 315 318 320 323 325 318 316 321 323 326 327 329 336 342 344 340 330 329 335 322 306 306 310 309 309 311 311 312 312 312 312 312 313 313 313 314 314 314 314 314 314 313 313 313 313 312 312 311 311 311 311 310 310 309 309 308 307 306 306 307 309 311 313 315 316 317 318 318 317 317 316 315 313 311 308 306 305 304 303 302 301
316 316 318 318 318 319 317 314 315 315 314 318 317 319 321 315 315 317 315 319 321 318 319 319 319 324 325 327 333 340 347 344 333 331 336 323 308 306 309 308 309 310 310 312 312 312 312 312 313 313 313 314 313 314 314 313 313 313 313 313 312 312 311 311 311 310 310 309 309 309 308 308 308 307 306 308 310 311 312 314 315 316 316 315 314 314 314 313 312 311 309 307 305 304 302 301 301
318 320 321 317 313 319 323 319 319 317 316 319 317 315 316 313 316 317 312 312 314 317 323 323 323 324 322 326 329 329 334 339 334 328 325 315 306 307 309 308 308 310 310 311 311 312 312 312 313 313 313 313 313 313 313 313 313 312 312 312 312 311 311 310 310 310 309 309 308 309 309 308 309 308 308 308 310 311 313 313 314 315 314 312 311 312 312 312 311 310 308 307 306 304 302 301 301
319 322 319 318 319 322 320 317 320 318 317 322 321 315 314 313 315 315 311 313 315 317 320 320 320 320 320 326 325 321 323 331 334 331 330 321 308 306 309 309 310 310 310 310 310 311 312 312 312 312 313 313 313 313 313 312 312 312 312 312 311 311 310 310 310 309 308 308 308 308 309 309 309 309 309 309 310 311 312 313 313 313 312 311 311 311 310 310 310 309 308 306 305 304 303 302 301
316 316 314 318 323 324 321 318 319 319 317 321 320 315 314 315 317 315 312 317 319 316 316 317 318 319 319 320 321 321 323 331 335 333 334 324 308 306 311 311 312 311 310 310 309 310 311 311 312 312 313 313 313 313 312 312 312 312 311 311 311 310 310 309 309 308 307 307 308 308 308 309 309 309 309 310 310 311 312 313 313 312 312 311 311 310 309 309 309 308 308 307 305 304 303 302 302
317 317 316 317 317 318 321 319 316 319 321 320 317 314 316 318 316 315 314 316 317 317 317 318 322 323 323 320 319 322 327 336 340 339 339 322 306 307 312 311 311 311 310 310 309 309 310 310 311 312 312 312 312 312 312 311 311 311 311 311 310 310 309 309 308 307 307 306 307 307 308 308 308 309 309 309 310 311 311 312 311 311 311 310 310 309 309 308 308 308 307 306 305 304 303 302 301
317 316 316 317 317 317 318 317 316 317 319 321 318 313 315 317 313 314 317 317 318 321 319 321 327 329 330 328 323 325 332 341 340 343 348 326 306 309 313 312 312 312 311 312 311 310 310 310 311 311 311 312 312 311 312 311 311 311 311 310 310 309 309 308 307 307 306 306 306 307 307 307 308 308 308 308 309 310 311 310 310 310 310 309 309 308 308 307 307 307 307 306 305 304 303 301 300
Wind_Speed
8 5 2 1 1 1 1 4 2 2 4 3 1 1 2 2 2 4 2 1 3 1 2 2 3 3 4 5 8 6 3 2 4 4 2 5 17 23 19 16 20 22 20 19 19 18 18 17 15 15 14 14 14 14 14 14 14 14 14 13 13 14 15 16 17 18 18 18 19 18 18 18 17 17 17 15 15 16 18 21 22 22 22 22 22 23 24 23 23 22 21 22 23 23 25 24 23
7 3 2 1 2 2 2 3 3 3 5 3 1 2 1 2 3 5 4 3 3 2 2 5 8 9 8 7 7 5 3 3 2 3 0 11 22 22 17 17 21 22 21 20 19 19 18 17 16 15 15 14 14 14 14 14 13 13 13 12 12 13 14 15 17 18 18 18 19 18 17 17 16 17 16 14 15 16 19 21 21 20 21 22 23 23 24 23 23 22 21 22 23 24 26 24 23
6 3 4 1 1 3 1 4 3 2 4 2 2 2 0 3 4 6 6 5 6 5 5 6 8 6 6 6 4 3 1 4 1 2 3 16 18 18 19 18 22 21 21 20 19 19 18 18 17 16 15 14 14 14 14 14 13 13 12 12 12 12 13 15 16 17 17 17 18 18 17 17 17 17 16 14 15 18 20 20 20 20 20 22 23 23 23 22 22 21 21 22 23 23 25 24 24
5 3 4 2 2 3 3 4 2 4 4 3 2 3 1 5 6 5 5 4 4 4 4 3 4 1 5 6 2 3 1 1 1 2 5 14 16 20 22 20 22 21 21 20 18 19 18 18 17 17 16 15 14 14 14 14 13 13 12 11 12 12 13 14 16 16 16 16 18 18 17 17 17 17 16 15 16 17 18 18 19 18 20 22 22 22 22 22 21 21 21 21 22 22 23 23 23
5 4 2 2 2 1 3 3 2 5 4 4 3 4 4 6 6 5 3 2 1 2 4 4 3 1 4 4 2 2 3 2 3 4 8 15 19 24 22 21 23 21 21 18 18 18 19 19 18 18 17 16 14 14 15 14 14 13 12 11 11 11 12 14 15 16 16 16 17 18 17 17 16 15 16 16 16 16 17 17 18 17 20 22 22 22 22 21 21 20 21 21 21 21 21 21 21
4 4 2 3 1 1 2 3 3 1 4 5 4 4 6 6 6 6 3 2 1 1 3 4 4 2 3 1 1 3 3 2 4 7 12 19 23 24 22 21 22 21 20 18 18 18 19 19 18 18 17 16 15 15 15 14 14 13 12 11 11 11 12 13 14 15 15 15 17 18 17 17 16 15 15 16 17 17 17 18 18 18 19 22 22 22 21 21 20 20 21 21 20 21 20 20 20
3 3 3 3 2 1 3 4 4 2 2 5 6 6 7 6 6 7 5 3 2 3 4 3 5 6 2 1 1 1 3 3 6 11 17 24 24 23 21 20 21 22 20 19 18 18 18 18 18 17 16 16 15 15 14 14 14 13 12 11 11 11 12 13 13 14 15 15 16 18 18 17 17 16 16 16 16 16 17 17 18 17 18 22 22 21 21 20 20 21 21 21 21 20 20 20 20
3 1 1 4 2 3 4 3 2 2 1 2 5 6 9 7 7 6 4 3 2 1 4 2 5 6 1 1 2 4 2 6 9 16 23 25 25 23 21 19 21 22 20 19 18 18 18 18 18 17 16 15 15 15 14 14 14 13 13 12 11 11 12 12 12 13 14 15 15 17 18 18 17 16 16 16 16 16 16 16 16 15 17 21 21 21 21 20 19 21 22 21 21 21 20 20 21
3 1 1 3 2 3 3 2 1 1 0 2 3 4 6 7 6 5 4 2 3 2 3 4 3 5 1 4 1 5 1 8 13 22 26 25 25 23 22 19 20 22 20 20 19 18 18 18 18 17 16 15 15 15 14 14 13 14 13 12 11 11 12 12 12 12 13 14 15 16 18 19 16 14 14 15 15 15 15 15 15 14 17 21 21 21 20 20 20 21 23 22 21 22 21 21 22
3 2 1 2 2 4 3 1 0 1 2 3 3 5 7 6 5 5 6 4 3 4 1 2 5 5 4 3 1 4 2 12 18 24 27 26 24 23 23 19 19 21 20 20 20 18 18 18 18 17 16 15 15 15 15 14 14 14 13 13 11 11 11 11 11 11 12 13 14 16 17 18 17 15 14 14 14 14 14 14 15 14 17 21 21 20 20 20 19 21 22 21 20 21 21 21 22
2 3 2 3 4 3 2 3 1 1 1 1 2 4 7 6 4 4 5 5 1 4 2 1 5 5 4 2 2 2 7 16 20 25 27 26 23 23 23 20 18 19 20 21 20 19 18 18 18 18 17 16 16 16 16 14 14 14 13 13 12 11 11 11 11 10 11 12 13 14 16 16 17 17 16 16 15 14 14 15 17 17 19 21 20 20 20 18 18 20 21 20 20 20 20 20 21
2 3 4 4 2 3 4 4 3 1 1 1 3 4 5 6 6 4 6 6 2 3 2 1 5 5 4 1 3 2 9 16 21 25 27 26 23 20 22 22 19 19 20 20 21 20 18 18 19 19 18 17 17 17 17 16 15 15 14 13 12 11 11 11 11 10 10 11 12 13 14 14 15 15 15 16 16 16 15 16 17 17 19 20 20 20 19 18 18 20 20 20 20 19 19 18 18
3 1 5 2 2 4 4 5 3 1 1 4 4 3 5 6 6 8 7 6 4 4 2 4 6 5 4 1 2 2 8 17 21 24 26 25 22 17 20 23 20 20 20 20 21 21 19 18 19 19 19 18 18 18 17 17 16 15 15 14 13 12 12 11 10 10 10 11 11 12 12 13 13 13 13 14 15 16 16 16 16 16 18 19 20 19 18 18 19 19 19 19 19 19 18 18 18
2 3 5 2 1 4 5 3 2 3 2 6 3 3 4 3 5 8 8 6 4 5 2 3 7 6 2 1 1 3 10 19 22 23 25 23 20 16 19 24 21 21 20 19 21 21 20 19 19 19 19 18 18 18 18 17 16 16 15 15 14 13 12 11 11 10 9 10 10 11 12 12 13 13 12 12 13 15 17 17 16 16 18 19 20 19 18 18 19 19 19 19 18 18 18 18 18
2 2 5 3 2 2 4 2 4 5 4 5 3 3 4 2 4 6 6 8 5 5 2 1 5 2 3 6 4 8 16 23 24 23 23 20 18 14 19 25 22 21 20 20 22 22 22 20 20 19 19 19 18 19 19 18 16 16 16 15 15 14 13 12 11 11 10 10 10 11 11 12 12 11 11 11 13 15 17 17 16 17 18 19 19 19 18 19 19 19 19 19 19 19 18 18 18
2 3 5 3 2 2 3 2 4 4 4 5 2 4 6 1 3 5 4 6 3 2 2 1 1 1 6 8 7 17 25 25 25 23 21 18 15 15 21 25 23 22 21 20 22 23 22 21 21 20 19 18 18 19 19 19 17 16 16 15 15 15 14 13 12 12 11 10 10 10 11 11 11 10 10 11 13 15 16 16 16 17 18 18 18 20 20 19 19 18 19 19 19 19 18 18 18
3 4 4 2 2 2 3 4 4 4 4 4 3 4 7 1 1 2 1 5 5 2 4 1 3 4 4 4 6 25 30 26 27 23 20 18 16 19 23 24 24 23 22 21 22 23 23 22 21 20 20 19 18 18 19 19 18 18 16 16 15 15 15 14 13 13 12 12 11 11 11 11 11 11 11 11 13 15 15 16 16 16 18 18 19 22 21 19 18 18 18 18 18 18 17 17 17
4 3 3 1 2 2 4 6 6 4 5 6 5 5 8 4 1 0 2 6 4 4 5 3 5 7 3 0 14 30 31 28 27 24 22 20 18 20 22 24 24 24 24 23 22 23 24 23 22 21 20 19 19 19 19 18 19 19 18 17 16 16 16 15 14 14 14 13 12 11 11 11 12 11 11 11 13 14 15 15 16 16 17 18 21 23 20 19 19 18 18 17 17 16 16 16 16
3 3 3 2 5 3 4 5 5 3 5 8 5 5 7 6 5 2 2 1 2 4 3 5 5 6 6 8 21 29 29 29 27 25 24 22 21 21 20 23 24 25 25 25 24 24 24 24 23 23 22 21 20 20 19 19 19 20 19 18 17 17 17 16 15 15 15 14 13 12 12 12 12 12 11 11 12 14 15 15 16 17 17 19 22 23 21 20 19 18 17 16 16 15 14 14 15
2 4 3 4 6 3 3 4 4 5 5 9 5 5 4 4 5 2 4 4 2 4 3 0 0 2 4 8 18 25 25 25 25 25 24 23 23 22 22 24 25 27 28 27 26 25 25 26 25 24 23 23 22 21 21 20 20 20 20 20 19 19 18 17 16 16 16 15 14 14 13 13 12 12 12 12 12 13 14 15 16 17 18 20 22 22 22 21 19 18 16 16 15 13 12 14 15
2 4 3 5 3 2 2 3 3 3 5 9 6 5 2 3 4 3 7 6 3 6 7 7 8 9 9 7 13 21 21 21 23 23 23 23 23 23 25 26 27 28 28 27 27 26 26 26 26 25 24 24 24 23 23 22 21 21 21 21 21 20 19 18 18 17 17 16 16 15 15 14 14 14 14 13 13 13 14 15 17 17 19 21 22 22 22 21 20 18 16 15 14 12 13 14 16
3 1 4 4 4 2 3 3 3 1 5 6 7 6 4 3 2 4 9 7 6 7 8 11 10 13 15 13 15 17 17 19 20 22 23 24 25 25 26 26 25 25 26 28 29 29 27 27 26 25 25 25 25 25 24 24 23 23 22 22 22 21 20 20 19 19 19 18 18 17 17 16 16 15 15 14 14 14 15 16 17 18 20 21 21 21 22 21 20 19 16 15 14 14 14 15 18
3 1 2 1 3 3 1 1 4 2 8 6 6 4 3 5 1 4 9 8 8 7 8 10 9 15 19 18 17 14 14 17 20 24 26 27 28 29 29 28 27 28 29 30 30 30 29 29 28 27 26 26 25 25 24 24 25 25 24 23 23 23 23 22 22 21 21 20 20 19 19 18 18 17 16 15 15 15 15 16 17 18 20 21 21 21 21 21 20 19 18 16 16 16 16 18 20
5 2 2 1 2 2 1 1 2 4 8 5 4 3 4 6 2 2 5 8 8 6 3 5 9 16 18 15 15 15 17 20 24 29 31 32 34 34 34 33 31 30 30 31 32 31 31 31 30 29 28 27 27 26 26 25 26 26 25 25 25 25 25 25 24 23 22 22 21 21 20 20 19 18 17 16 16 16 16 16 18 19 20 21 21 21 21 21 20 19 19 18 17 17 18 20 21
4 3 2 1 1 1 2 2 4 4 4 2 5 4 3 5 3 1 6 9 8 5 3 5 11 14 13 13 13 14 15 20 23 26 28 30 31 30 29 31 30 29 31 33 33 34 34 33 32 31 30 29 29 29 28 28 27 27 27 27 26 26 26 26 25 24 24 24 24 23 22 21 20 19 18 17 17 17 17 18 19 20 21 22 22 21 21 21 20 19 19 19 18 18 20 22 22
2 5 4 2 1 2 2 2 3 2 1 2 5 1 4 2 1 3 8 9 5 2 6 6 10 11 11 11 13 14 13 17 21 23 26 28 25 24 27 29 29 32 35 34 35 36 36 35 35 34 33 31 31 31 31 30 30 29 28 28 28 28 27 26 26 26 25 26 26 25 24 22 21 19 19 18 18 18 18 19 20 22 23 23 23 22 21 21 20 20 20 20 20 21 22 22 23
3 6 5 4 2 2 2 1 1 1 2 1 5 1 5 3 2 4 7 4 5 7 5 5 8 10 11 10 11 15 15 19 24 23 22 22 22 26 28 29 32 35 35 34 37 37 36 37 37 37 36 34 33 33 33 33 32 31 30 29 29 30 29 27 27 27 27 27 27 26 25 23 22 20 19 19 20 20 20 20 21 23 24 24 24 23 21 21 21 21 21 21 21 22 23 23 24
5 7 5 6 5 2 2 2 1 1 1 1 7 2 4 4 1 6 5 0 7 8 6 6 7 8 10 10 10 12 15 21 23 19 19 23 28 31 32 33 36 36 35 36 38 37 37 38 38 38 37 36 35 35 34 35 34 34 32 31 31 30 29 29 28 28 28 28 28 28 27 26 25 23 22 21 22 22 22 22 23 24 25 25 24 23 22 21 21 21 21 21 22 22 23 24 24
5 6 5 6 8 3 2 1 2 0 1 1 4 1 4 1 6 8 1 2 6 7 7 7 7 7 7 9 8 8 14 18 17 19 25 30 33 34 35 38 38 37 37 37 36 36 37 37 38 38 37 37 37 37 36 35 35 34 33 32 31 30 29 30 30 29 29 29 29 30 29 28 28 27 25 24 24 24 24 24 25 26 26 27 25 24 23 22 22 22 22 23 23 23 25 25 25
3 4 5 2 7 4 5 1 1 1 1 2 3 1 6 7 11 8 3 1 6 6 7 7 7 7 6 7 7 8 12 15 17 25 32 33 34 34 36 39 37 37 37 35 35 36 37 36 37 38 37 37 38 38 37 36 35 34 33 32 31 30 30 31 32 31 30 30 30 31 31 31 30 29 29 27 27 27 27 27 27 28 29 28 27 26 24 24 24 25 25 25 25 24 25 26 26
2 2 3 2 2 3 7 2 2 4 0 3 6 2 6 8 10 9 6 3 8 8 8 7 7 7 6 7 7 8 11 16 23 29 33 34 34 34 36 37 36 37 36 35 37 37 36 36 37 38 38 37 38 39 38 37 36 34 33 31 31 30 30 31 32 32 32 31 32 31 31 33 33 32 31 31 30 29 29 30 30 31 31 31 29 28 27 26 26 27 28 27 26 26 27 27 27
3 2 2 3 2 4 8 2 5 5 1 5 6 2 6 8 9 8 5 3 8 7 8 7 7 8 8 7 8 8 10 16 23 27 31 33 34 34 36 36 35 36 37 37 37 36 36 36 37 38 38 37 38 40 39 37 36 34 33 31 30 30 30 31 32 32 32 32 32 33 33 33 34 34 33 33 32 32 32 32 32 32 33 33 31 29 29 28 29 29 29 29 29 29 29 28 27
3 3 2 2 2 2 4 2 2 3 1 3 3 3 3 3 6 7 4 4 5 5 7 7 7 8 9 8 8 8 9 11 15 23 30 32 34 35 36 36 35 36 37 37 36 36 37 37 37 37 38 37 37 39 39 37 36 34 33 31 31 31 31 32 31 31 32 33 33 33 34 34 33 33 34 34 34 34 33 33 33 33 34 35 33 31 30 30 31 31 30 30 30 31 31 30 28
3 2 1 3 3 3 2 3 3 2 2 1 1 2 6 6 6 9 6 2 4 5 7 8 8 8 8 8 8 8 9 9 10 20 30 34 35 36 36 35 35 34 35 36 36 37 37 37 37 37 38 37 36 38 39 39 37 34 32 32 31 31 32 32 31 31 32 32 33 33 34 35 34 34 34 34 36 36 35 35 36 36 37 37 35 34 33 31 31 31 32 30 29 31 32 31 30
5 2 2 2 2 3 3 3 3 2 2 2 1 2 9 12 9 9 8 1 4 8 8 8 8 8 9 8 8 9 9 10 13 21 29 33 35 36 36 35 34 33 33 34 35 35 35 36 37 37 37 37 36 36 37 38 37 35 33 31 31 31 32 32 31 31 31 31 32 32 33 34 34 33 34 36 39 40 38 38 38 38 39 39 37 36 34 34 32 31 32 31 29 29 31 32 31
8 5 5 4 3 3 5 4 3 1 3 3 5 5 8 11 10 10 9 3 6 8 8 8 8 8 9 8 9 10 10 12 17 21 24 27 32 35 35 35 34 33 32 33 34 34 35 36 36 37 38 37 36 36 36 36 36 36 34 31 32 32 32 32 31 31 30 31 31 31 31 32 32 32 35 39 41 42 41 40 39 39 40 41 40 38 37 36 34 33 33 33 31 28 29 31 32
7 6 5 4 4 2 3 2 5 1 3 5 5 5 8 10 11 12 9 3 4 8 9 10 10 9 9 9 11 12 11 12 14 16 19 23 28 31 32 32 31 30 30 31 32 34 35 36 37 38 38 37 37 37 37 37 37 37 36 36 36 34 33 32 32 32 31 31 30 30 31 31 30 31 34 38 40 42 41 40 40 40 41 42 42 40 39 39 38 37 34 33 32 31 30 31 33
6 6 5 3 2 2 2 1 5 3 1 4 3 4 9 10 11 12 9 6 7 10 11 12 13 12 9 9 13 12 10 10 10 12 16 19 23 26 27 28 29 29 30 32 33 35 36 36 37 38 37 37 38 38 38 38 38 38 38 39 38 36 34 33 33 33 33 31 31 31 31 31 31 31 32 34 37 39 41 43 42 42 42 42 41 39 38 38 40 40 37 34 31 32 33 34 37
5 4 5 2 1 2 3 4 5 4 1 4 5 6 10 10 10 11 11 11 10 9 10 12 12 11 10 10 12 11 10 10 9 11 13 17 20 22 23 25 28 31 32 33 33 34 35 36 37 37 37 37 38 38 38 37 37 37 36 36 35 34 33 33 32 32 31 31 31 31 32 32 32 32 31 32 35 36 39 42 43 43 43 43 42 41 38 37 39 39 41 39 34 31 31 36 39
4 4 4 2 2 1 1 4 4 3 2 2 4 6 9 8 6 10 11 10 9 7 9 11 10 10 12 11 10 10 12 12 10 10 11 14 16 17 21 25 29 31 31 31 32 33 34 36 37 37 37 37 37 37 37 36 35 34 34 32 31 31 31 31 30 30 30 30 31 32 33 33 33 32 32 31 33 34 37 40 42 43 42 43 44 45 42 41 41 40 40 40 39 34 30 35 36
2 3 5 3 2 3 3 2 2 3 4 3 4 5 8 5 4 7 7 4 6 5 5 8 9 10 10 9 10 11 11 10 10 11 10 11 13 17 22 26 27 29 31 32 33 34 35 36 37 37 36 36 36 36 36 36 34 33 32 29 26 27 27 28 29 30 30 30 32 33 34 34 34 33 33 32 31 30 32 36 40 41 40 42 44 44 45 45 45 45 44 43 44 42 36 37 35
3 2 5 7 6 6 2 2 4 4 5 4 4 4 6 5 5 7 6 6 8 4 5 10 11 9 8 9 10 9 8 9 9 10 9 9 13 17 19 23 24 28 31 32 32 33 34 34 35 35 35 35 35 35 36 36 35 34 32 30 27 26 26 28 30 33 33 33 34 34 35 35 35 35 35 35 33 30 29 32 36 38 39 43 44 43 43 44 45 47 48 47 47 46 41 39 37
1 3 5 7 7 7 4 2 3 1 3 3 4 3 5 7 5 8 8 8 11 8 8 12 12 9 7 7 8 7 7 9 8 9 8 8 11 14 17 21 25 27 29 29 29 30 31 31 32 33 34 35 35 35 35 35 35 35 34 33 32 31 31 32 33 33 33 34 34 34 35 34 34 35 35 36 36 34 31 30 33 35 37 39 40 40 42 43 46 48 49 49 47 44 42 41 41
3 3 6 8 8 7 6 5 3 1 3 4 4 4 2 7 6 6 5 7 10 10 12 13 10 9 8 7 8 8 9 8 7 7 7 7 11 14 18 21 24 26 26 25 26 28 29 30 31 32 33 34 34 34 34 35 35 35 35 34 34 34 35 35 33 31 31 32 32 33 34 34 34 35 35 36 37 36 35 34 35 36 37 38 39 41 43 44 46 46 46 46 42 41 42 43 44
4 4 7 6 7 7 5 6 3 1 2 5 4 2 2 6 7 5 3 4 8 10 12 12 10 9 8 8 9 8 8 7 6 7 7 8 11 15 17 18 20 22 22 23 25 26 28 29 29 30 31 32 32 33 33 34 34 35 35 35 35 35 34 33 31 30 30 29 30 31 32 32 34 34 35 36 36 36 37 38 39 40 42 43 44 44 44 44 45 45 46 45 42 42 43 41 42
3 5 7 5 6 6 5 5 3 2 2 5 6 4 3 6 7 5 2 2 7 9 9 9 9 9 8 8 8 7 6 5 5 5 5 6 8 11 12 14 16 18 20 21 23 24 26 27 28 29 30 30 30 31 32 33 33 34 35 35 35 35 33 31 29 28 28 28 28 29 30 30 30 30 32 33 34 35 37 37 39 43 45 45 46 45 44 44 44 45 46 48 46 45 44 42 41
6 6 7 6 6 5 4 3 4 2 3 7 7 7 4 4 6 4 3 4 6 5 7 7 7 7 7 7 6 6 5 3 1 1 1 1 2 5 7 11 13 15 18 19 21 23 24 26 27 28 28 29 29 30 31 32 33 34 35 35 35 35 33 31 30 28 27 27 28 28 28 28 26 26 29 30 31 34 36 36 37 41 43 44 44 43 43 43 43 44 45 46 46 44 44 43 39
6 5 5 4 4 4 4 4 4 1 5 6 5 2 3 4 6 4 5 7 6 5 6 8 8 7 7 6 5 5 5 4 3 2 2 2 1 2 5 9 11 13 16 19 21 22 24 25 26 26 27 27 28 29 30 31 32 33 34 34 34 34 33 32 31 30 29 29 29 28 27 26 26 27 29 30 32 34 34 35 36 38 39 40 42 42 42 42 42 44 45 46 46 45 45 42 38
6 5 6 4 2 3 3 3 0 3 6 4 3 0 2 6 7 7 9 9 8 8 7 7 7 7 6 6 6 5 4 5 4 3 3 3 2 4 7 10 12 14 17 19 21 22 22 23 24 25 26 27 27 28 29 31 32 33 33 33 33 32 32 32 32 32 31 30 30 29 29 29 29 29 31 33 34 35 35 35 35 35 36 38 39 39 40 41 42 43 45 47 47 47 46 44 43
4 5 5 4 2 1 3 4 2 4 5 3 3 0 3 5 4 8 12 9 6 6 7 8 7 7 6 6 6 6 6 5 5 5 4 4 5 7 10 13 15 16 17 18 19 20 21 22 23 25 26 27 27 29 30 31 32 32 32 32 32 32 32 32 32 32 32 31 31 30 30 30 30 31 32 34 34 35 37 37 36 35 35 36 37 37 38 40 42 44 45 46 47 47 46 45 45
4 4 6 5 5 5 4 3 3 5 3 3 3 1 3 3 3 7 9 8 5 4 6 7 6 6 5 6 6 6 6 6 5 5 5 6 9 11 13 15 16 16 15 16 18 19 20 22 23 25 27 27 28 29 30 31 32 31 31 32 32 32 32 32 32 32 32 31 31 30 31 31 30 30 30 32 33 34 35 36 37 37 36 37 37 37 39 41 42 43 43 44 45 46 45 44 45
2 3 5 3 5 5 2 3 5 3 2 3 2 3 5 4 6 8 7 8 7 5 6 7 6 6 4 6 7 5 7 6 5 5 6 7 12 15 16 16 15 14 15 17 18 19 21 22 24 26 27 28 28 29 30 30 31 31 31 31 32 32 32 32 32 32 31 31 30 30 31 31 30 29 28 29 30 32 34 34 35 36 36 37 38 39 40 41 41 42 42 42 44 44 44 45 46
2 3 3 5 4 7 3 2 0 3 2 4 1 5 6 3 7 9 5 8 8 7 8 7 8 8 6 7 7 5 6 6 5 6 6 8 12 15 18 17 16 16 17 19 20 21 22 23 25 26 27 28 28 29 30 30 30 30 31 31 31 32 32 32 32 31 30 30 29 29 30 30 30 28 27 27 28 30 33 34 35 35 36 37 37 38 39 40 40 41 41 42 43 43 41 42 43
5 3 6 3 2 4 4 2 3 3 3 5 1 6 6 2 5 5 4 4 8 7 7 7 8 8 7 8 8 6 6 6 6 6 6 8 11 15 18 17 17 19 19 20 21 22 23 24 25 26 27 28 29 29 29 29 29 30 31 31 31 32 31 31 31 30 30 29 29 29 29 30 30 27 26 27 28 29 30 33 36 37 37 36 36 37 37 38 39 40 41 41 42 41 40 41 41
5 4 4 4 2 1 2 2 2 1 3 5 4 5 5 5 6 1 4 4 8 7 7 6 8 8 7 9 10 7 5 6 7 6 6 7 11 16 17 16 17 18 19 20 20 21 23 25 25 27 28 28 28 29 29 29 30 30 31 31 31 31 30 30 30 29 29 29 30 29 29 30 30 27 27 28 28 28 28 30 32 33 34 35 36 36 36 37 38 39 40 40 40 41 42 43 43
3 2 2 3 2 4 3 3 3 3 3 3 3 4 4 6 6 6 6 7 7 7 8 7 9 9 8 8 9 7 5 6 6 5 5 6 11 15 15 14 16 17 17 19 19 21 23 25 26 28 28 28 28 28 29 30 30 30 31 31 30 30 30 29 29 29 29 30 30 29 29 30 30 29 28 28 28 28 27 27 27 29 30 33 35 36 36 36 37 38 39 40 41 41 42 43 43
3 3 4 2 1 2 2 1 2 4 4 3 2 5 6 5 4 8 9 9 8 8 8 8 8 8 8 8 7 7 6 6 6 5 5 6 9 11 10 12 15 15 16 18 19 21 23 25 28 28 28 28 28 29 29 31 31 30 31 31 31 30 29 29 29 29 30 30 31 30 29 29 30 30 29 29 29 29 28 27 27 27 29 31 34 36 36 36 36 37 38 39 40 41 41 41 41
7 7 8 7 5 4 2 3 1 2 3 4 3 6 10 5 5 7 8 8 8 8 7 7 8 8 8 8 7 6 6 5 6 6 5 5 7 8 8 10 13 15 17 18 19 22 24 27 28 28 28 29 30 30 31 31 31 31 31 31 30 30 29 29 29 29 29 30 31 31 30 29 30 31 31 31 31 30 29 29 28 29 30 30 32 34 36 36 36 37 38 38 39 39 39 39 39
Wind_Direction
351 3 5 125 24 54 51 74 66 329 75 88 24 100 143 194 167 123 127 81 55 338 307 23 44 86 103 115 140 137 113 156 173 145 217 195 148 156 165 165 165 159 157 153 154 155 153 150 144 141 138 131 128 126 122 114 108 102 96 92 89 86 81 75 74 74 77 84 89 88 88 91 91 92 95 98 97 94 93 90 87 85 87 88 91 94 96 96 92 90 88 90 91 91 91 92 93
355 13 36 58 15 57 212 80 91 343 54 87 289 133 147 352 91 147 179 163 147 172 107 79 69 72 84 104 121 95 41 328 189 155 189 145 143 156 166 168 166 160 157 154 155 156 156 153 147 145 142 136 131 131 126 119 114 107 101 95 91 87 83 78 76 77 80 87 92 92 92 94 94 93 92 93 96 96 93 89 86 84 86 89 93 97 97 96 92 89 89 93 92 94 94 91 91
1 39 48 63 21 53 73 45 90 71 73 131 262 264 104 91 143 192 205 172 162 145 117 98 77 75 81 66 48 66 42 314 149 109 109 143 146 162 171 172 165 160 158 155 156 158 158 156 151 149 148 142 136 136 131 125 120 112 107 101 96 90 87 82 80 81 83 92 96 96 96 97 96 95 95 93 94 95 91 86 87 86 88 92 96 98 99 97 93 91 91 93 92 94 97 95 93
5 26 25 56 48 34 55 51 122 114 117 177 197 272 231 149 172 205 215 189 172 136 130 104 64 46 91 91 72 74 147 281 151 115 139 160 158 164 171 169 164 161 159 156 157 157 158 157 153 152 151 146 141 140 136 132 126 120 117 109 103 97 92 87 85 85 87 96 101 101 101 100 98 101 105 101 93 91 89 86 90 91 91 94 98 100 100 98 93 92 91 91 92 94 98 98 97
359 7 3 60 67 46 82 77 96 103 166 182 147 254 237 179 173 185 231 251 245 134 137 107 80 326 74 107 133 115 177 154 172 165 152 166 161 162 167 163 164 162 159 157 157 157 156 155 153 152 152 149 144 142 142 138 133 128 124 116 109 103 98 92 90 89 92 100 106 107 104 103 103 109 115 111 104 98 94 93 95 94 93 96 100 101 101 99 93 91 91 90 92 94 97 99 99
356 32 42 47 68 173 89 84 95 115 208 165 142 231 222 197 179 168 187 205 343 99 118 97 123 125 66 3 57 137 194 140 168 180 157 157 157 161 162 160 166 164 161 159 159 158 155 153 151 151 152 151 146 144 143 141 139 134 129 121 114 109 102 97 94 94 96 103 110 110 106 105 104 107 114 114 109 104 101 100 99 96 93 96 100 102 103 99 92 90 90 90 91 93 96 98 98
355 41 43 46 12 36 92 119 141 185 215 162 157 177 196 212 193 152 145 147 44 21 62 99 134 110 74 311 72 8 270 209 169 170 158 153 157 161 159 160 166 165 163 163 162 159 156 154 151 152 153 152 149 146 144 144 144 138 133 125 119 114 107 101 98 98 98 103 112 114 109 106 104 104 106 107 104 103 103 101 102 98 96 99 100 101 102 100 93 89 89 89 91 93 96 97 97
8 44 58 87 39 28 97 114 165 184 66 151 159 169 185 193 189 150 138 143 108 40 64 140 131 96 11 44 108 315 297 189 172 159 155 152 160 164 162 163 164 165 166 165 164 162 160 158 154 155 154 153 152 148 147 148 148 143 139 131 125 119 112 107 102 100 99 102 112 117 113 108 108 108 105 103 102 103 102 100 101 99 100 103 103 102 102 101 96 92 93 93 92 94 95 96 98
42 40 10 84 79 33 73 65 37 195 116 135 143 178 185 184 188 141 122 120 140 138 104 176 132 106 163 50 97 298 13 171 166 156 155 155 162 166 167 169 166 164 166 167 167 167 165 163 160 157 157 157 156 152 151 151 150 148 143 137 132 126 118 112 107 103 102 104 111 120 119 113 110 110 108 105 104 104 102 102 103 102 104 106 105 104 103 102 98 96 101 102 100 100 98 99 102
50 21 106 81 77 56 56 111 91 146 180 183 184 183 177 187 184 130 122 133 141 118 140 169 86 106 138 90 193 295 159 162 161 160 159 157 160 166 171 176 173 166 167 170 171 171 168 168 167 163 163 162 160 157 156 155 153 152 148 144 140 133 126 120 114 109 106 106 111 120 124 120 114 112 111 109 109 109 105 105 106 105 107 107 107 105 106 104 98 100 105 107 108 109 107 107 108
38 341 92 78 67 103 166 173 186 151 173 236 240 201 183 176 133 100 105 121 124 110 159 59 88 122 101 110 250 255 165 158 161 165 164 159 160 168 175 179 180 172 170 172 174 174 170 171 173 171 169 167 167 163 161 161 158 156 152 151 148 140 134 127 122 117 113 110 112 118 125 126 123 120 118 118 117 116 112 108 107 106 108 110 109 108 110 107 103 108 110 110 112 113 114 113 112
83 325 67 85 119 160 178 150 168 179 312 179 198 233 185 141 117 125 124 132 151 110 195 186 142 141 81 330 273 181 166 163 165 166 166 164 163 169 179 182 181 179 176 175 176 175 172 172 175 176 175 174 173 170 167 166 165 160 157 158 156 149 141 134 130 127 121 116 115 116 123 128 130 132 129 129 126 122 119 114 114 112 112 114 113 112 112 111 113 118 117 115 115 114 116 116 116
118 166 86 96 178 135 134 134 167 87 333 210 194 217 150 136 153 164 143 131 145 119 230 210 145 112 90 255 291 189 183 174 168 166 169 169 169 172 183 184 180 182 180 178 178 176 175 174 176 178 178 177 177 175 173 171 171 166 163 166 163 156 148 141 137 136 130 123 122 120 123 128 133 137 136 137 133 128 127 124 122 120 119 119 116 114 113 117 123 125 122 121 119 118 119 118 119
136 158 105 120 76 111 138 118 157 136 226 239 224 191 143 144 169 160 131 123 188 169 180 198 140 112 104 194 292 231 200 181 169 169 172 172 177 177 184 184 181 182 182 183 182 179 178 176 176 176 177 178 179 178 177 176 176 172 170 170 168 162 155 149 146 144 141 133 130 128 128 131 134 137 137 138 136 133 133 129 126 125 124 123 122 118 115 123 129 129 128 126 125 124 122 121 120
148 134 90 109 51 94 165 145 161 153 203 226 211 158 98 76 139 144 147 143 214 222 150 114 132 135 167 166 211 210 192 180 171 173 174 177 183 182 185 183 180 182 182 186 185 184 182 179 178 176 176 177 177 179 179 181 181 177 174 173 172 169 163 158 154 151 150 145 140 137 136 137 137 138 136 134 134 136 135 131 129 130 128 127 128 121 119 129 134 133 133 132 129 127 124 123 121
120 106 71 83 81 124 172 163 140 140 208 213 209 129 92 345 129 141 207 149 162 292 31 56 53 330 169 174 214 188 179 174 173 178 175 175 179 177 182 180 181 181 182 188 188 188 186 183 182 179 178 176 177 179 180 183 183 183 179 176 178 176 170 165 161 158 158 155 149 146 143 143 141 139 136 133 135 137 137 135 133 133 133 130 127 124 127 136 138 137 138 137 134 130 127 125 123
61 80 69 64 126 158 175 174 169 163 208 222 244 150 119 303 357 132 257 94 113 45 36 12 345 7 171 240 202 169 168 168 173 177 171 169 166 166 174 178 180 180 183 188 191 191 189 187 186 184 182 179 179 180 182 184 184 185 182 180 183 182 176 170 168 166 164 161 158 156 153 150 146 141 138 136 137 140 141 139 137 136 136 132 128 130 134 140 141 141 141 138 135 133 131 129 126
54 85 98 118 189 181 169 184 201 174 167 191 209 165 133 158 217 134 52 56 70 59 29 0 6 16 16 140 150 156 161 165 171 172 168 167 162 162 168 175 179 181 184 188 192 194 192 191 190 188 187 185 183 183 185 186 186 188 186 184 187 187 180 177 176 173 171 168 166 166 164 159 154 147 143 139 140 144 147 146 143 141 140 138 135 135 139 145 147 145 143 140 137 136 135 132 130
90 116 96 197 210 192 190 196 204 191 167 171 186 170 151 171 171 125 126 129 95 92 9 354 22 22 43 113 141 153 160 165 171 172 172 173 170 169 169 174 180 183 186 189 191 194 196 195 194 194 191 189 188 187 188 189 190 191 190 188 190 190 186 183 182 180 178 174 173 174 173 168 162 155 150 145 144 147 151 152 150 147 144 141 139 139 146 153 153 151 147 142 138 137 136 133 134
153 113 92 228 215 201 233 207 215 242 181 155 170 172 159 183 165 136 156 161 157 166 195 97 189 206 134 138 147 155 163 168 174 177 179 182 181 179 176 177 182 186 189 191 190 193 198 198 198 198 195 193 192 191 191 191 193 194 194 192 193 194 190 188 187 186 183 182 181 180 180 175 171 164 157 154 151 152 155 156 155 151 147 145 146 149 154 158 157 154 150 145 142 140 136 134 138
135 102 160 219 176 133 254 226 254 272 159 154 150 134 167 209 163 142 142 140 249 239 212 196 195 183 166 172 164 163 168 172 178 182 186 189 190 189 187 186 188 190 190 190 191 194 199 199 199 199 199 198 196 195 194 194 195 196 197 195 196 196 194 193 191 191 188 188 188 186 185 182 178 173 166 164 160 159 160 161 160 157 152 152 157 159 159 160 160 158 155 151 147 144 138 137 141
78 42 200 195 135 135 263 259 287 57 109 119 129 144 185 169 139 150 147 159 227 229 214 208 190 171 170 175 173 171 174 177 183 188 192 195 197 197 196 194 193 194 193 192 194 198 201 201 200 199 200 202 201 200 198 197 198 198 199 198 198 198 198 197 195 195 193 192 193 190 188 186 184 180 175 170 167 167 166 167 166 163 160 159 164 165 161 163 163 162 162 158 152 148 141 140 143
101 277 258 210 168 164 207 282 306 118 116 127 151 172 149 121 174 173 161 192 225 223 210 212 191 170 170 166 168 175 181 186 190 194 196 198 200 202 200 199 197 197 198 199 198 199 201 203 204 203 202 203 204 204 203 202 202 201 201 201 200 199 199 200 199 199 197 195 195 195 192 190 188 184 181 177 174 172 171 173 172 168 166 165 169 169 165 165 165 164 165 161 154 148 143 143 144
96 165 290 1 138 133 159 141 4 87 122 160 158 127 137 152 183 139 189 227 239 259 253 194 168 158 160 160 174 184 186 190 196 199 200 201 203 204 203 202 201 200 201 204 203 201 201 203 205 206 206 205 205 206 206 206 206 205 204 204 204 203 201 202 203 201 199 197 198 199 197 193 192 188 186 184 180 177 177 178 176 173 171 170 172 173 171 168 167 167 166 162 154 148 145 145 145
84 154 220 41 46 353 340 58 47 53 95 102 103 112 209 189 167 138 231 242 241 263 25 112 139 143 159 170 184 190 192 198 202 205 206 208 209 208 208 207 205 204 206 206 205 206 205 204 204 206 208 208 207 207 208 208 208 208 207 207 206 206 206 206 206 203 200 199 200 201 201 197 195 193 191 189 186 182 181 181 180 177 176 176 175 176 176 173 170 169 167 163 158 154 150 149 149
173 142 163 120 26 316 12 52 39 38 21 52 104 71 301 244 250 265 242 237 213 123 75 111 135 146 175 182 189 192 197 204 206 208 210 213 213 213 215 212 209 210 212 210 208 209 208 206 206 207 208 209 209 209 210 210 209 209 210 210 208 208 209 209 208 206 203 202 202 203 204 203 200 199 197 194 192 188 184 185 183 180 180 181 180 179 179 178 175 172 170 165 162 159 157 156 155
154 115 109 87 41 316 30 80 325 28 5 40 132 171 309 329 344 262 263 243 143 119 115 148 149 166 188 190 197 197 200 208 208 208 210 213 213 216 217 214 214 215 215 213 213 213 211 209 210 210 210 210 210 211 211 210 209 210 212 213 211 210 211 211 211 209 206 205 206 206 207 208 207 207 205 202 199 193 189 188 186 184 183 184 184 183 182 183 180 176 175 170 166 163 159 160 160
124 115 84 16 2 343 36 105 259 356 59 125 127 124 314 1 332 233 269 36 147 148 158 179 179 187 195 196 204 201 208 215 210 206 206 209 211 213 214 214 215 215 215 216 217 215 213 213 212 212 212 211 212 213 214 212 211 211 211 213 213 212 212 212 212 211 209 207 209 210 209 210 210 211 211 209 205 199 195 191 189 189 188 186 187 188 185 186 183 178 176 173 169 165 162 162 163
117 104 92 343 2 4 290 129 266 196 123 232 119 69 297 241 227 232 316 84 157 158 173 197 204 206 205 205 210 209 218 219 211 211 214 214 214 213 213 216 215 214 216 218 218 216 216 215 213 212 213 214 214 214 215 214 213 212 212 215 215 214 214 213 213 212 212 210 210 212 213 212 212 213 212 212 211 206 200 195 192 192 193 190 189 191 188 186 184 179 175 173 170 168 164 163 163
122 79 97 12 14 346 284 305 293 154 128 320 107 224 275 246 239 249 340 84 145 163 198 210 217 221 219 215 218 222 224 217 211 217 220 220 219 217 217 220 217 216 218 216 216 218 218 216 214 213 212 215 215 214 215 215 214 214 215 217 216 214 214 215 216 215 214 213 213 215 216 215 216 216 215 213 211 209 205 200 195 194 195 194 193 194 193 189 187 181 177 174 171 169 165 163 165
108 83 71 59 96 271 295 303 145 144 199 38 95 190 266 271 269 279 298 204 159 185 212 213 225 234 233 227 224 231 229 218 218 222 223 224 223 221 223 223 219 218 219 216 217 219 219 217 215 214 213 215 216 214 215 215 214 214 216 217 215 214 215 216 217 217 217 216 215 216 218 219 219 219 219 215 210 209 208 204 198 195 195 195 195 196 195 191 188 184 181 176 169 167 165 163 166
52 103 323 347 152 257 305 281 157 153 260 41 89 206 269 280 279 287 301 159 163 199 218 220 227 232 236 237 230 235 239 229 228 229 228 228 227 226 226 227 223 220 220 220 220 219 219 219 217 216 215 215 215 214 214 215 214 214 215 216 215 215 216 217 217 218 219 218 218 218 219 220 220 221 220 217 212 209 209 207 202 198 196 197 196 195 195 192 188 184 182 181 173 166 164 162 165
3 98 202 266 154 255 308 292 213 167 196 13 75 214 267 281 268 286 333 90 146 210 238 240 234 235 235 235 235 235 244 242 236 236 234 232 231 230 230 230 228 225 224 223 220 219 219 220 219 219 218 217 215 213 212 214 215 215 216 217 217 217 218 219 218 218 220 220 220 220 220 220 221 223 222 219 216 212 211 210 206 202 200 199 198 195 195 192 189 183 178 179 178 170 165 163 161
293 49 164 228 173 181 273 282 290 74 129 285 37 221 250 262 271 288 313 65 145 217 242 246 239 243 242 238 245 243 242 246 238 235 234 233 233 233 233 233 232 229 227 225 222 221 221 220 220 220 220 219 216 214 213 214 215 216 217 218 218 219 221 221 220 219 220 220 221 222 222 221 220 223 224 222 220 216 214 211 208 205 201 199 198 196 195 191 188 184 178 175 177 173 168 164 162
189 183 158 221 200 191 242 251 251 64 88 225 142 243 259 267 276 282 288 258 192 232 241 246 246 244 248 248 247 245 244 246 242 236 233 233 233 234 234 234 233 232 229 226 224 223 222 221 221 220 219 219 217 215 214 215 217 218 218 218 219 219 221 221 221 221 220 220 220 221 223 224 224 225 226 225 220 215 212 209 207 204 201 199 197 194 192 189 186 184 180 175 172 172 170 166 161
167 174 147 159 176 219 242 253 268 125 117 237 219 226 258 271 279 279 278 239 205 249 260 258 258 248 248 250 250 250 245 245 246 243 238 235 234 234 234 233 233 233 231 227 224 222 221 220 219 218 218 217 216 215 214 214 215 216 216 215 216 216 217 217 218 219 220 221 221 222 222 225 227 228 228 223 215 211 208 207 206 203 202 201 199 196 193 192 191 187 183 178 172 166 166 165 162
133 122 107 142 156 234 262 278 308 48 135 259 247 243 263 268 273 273 276 260 211 248 258 254 253 248 244 240 247 250 244 250 257 253 245 239 237 235 232 232 231 229 229 226 223 222 221 220 219 218 217 216 215 214 214 213 213 212 213 214 216 216 216 216 217 218 220 223 224 224 224 226 228 228 228 221 211 208 208 208 208 205 203 203 202 201 200 198 195 190 183 178 173 166 162 163 162
95 118 110 87 134 227 269 277 308 2 125 276 335 310 270 261 266 270 277 274 241 230 234 245 246 244 245 240 244 249 252 264 270 262 250 241 239 236 232 229 226 225 226 224 223 223 222 221 221 220 218 216 217 218 216 216 215 213 213 215 218 219 219 220 222 223 224 225 226 226 227 227 227 226 227 221 211 207 207 207 207 206 205 205 202 200 199 195 191 189 183 177 174 171 167 165 164
81 108 119 103 174 242 299 312 317 9 96 275 349 336 276 262 259 263 262 257 251 230 222 237 244 244 243 238 243 250 259 265 263 261 254 244 239 235 229 226 225 226 227 224 222 222 220 219 221 222 220 219 219 219 218 219 218 216 215 217 219 220 223 225 226 228 228 227 227 226 226 225 224 223 225 222 214 210 207 205 206 207 206 205 204 201 198 193 189 188 186 181 175 172 171 170 171
85 104 121 190 250 148 280 304 315 356 46 275 340 321 282 279 275 268 259 255 268 262 240 240 239 241 241 237 237 241 247 252 256 259 256 249 242 230 224 223 224 225 224 223 220 219 218 219 221 221 221 222 220 219 218 218 217 215 216 220 222 224 227 229 229 230 229 227 225 223 222 221 221 222 222 221 218 216 212 208 205 206 206 206 204 202 199 197 193 190 188 183 177 172 173 176 178
0 131 137 176 199 160 190 283 316 349 8 15 10 329 290 307 330 287 282 303 291 277 277 268 248 239 247 253 247 237 240 246 251 254 253 247 235 225 221 221 222 220 220 222 220 219 219 220 222 222 222 222 221 219 218 217 216 216 217 219 222 225 228 229 228 228 226 224 223 221 221 220 221 222 222 222 221 220 217 214 209 207 208 206 203 202 201 200 199 196 192 189 187 184 181 180 182
323 229 171 168 161 153 162 13 41 32 353 336 23 357 289 310 320 278 291 317 292 297 324 288 269 254 243 250 253 247 249 249 245 250 254 246 233 226 222 220 218 218 221 222 222 221 221 222 222 221 222 222 221 220 218 217 217 217 217 217 218 220 223 225 226 227 226 224 224 223 221 220 221 223 224 225 226 226 223 220 217 214 210 206 204 204 204 202 200 200 198 195 196 194 187 180 183
297 239 165 145 125 120 129 93 68 74 259 294 47 100 268 301 285 256 274 291 286 300 303 277 270 268 249 245 256 255 253 249 246 251 255 247 231 221 220 218 216 219 222 222 221 221 221 222 222 222 223 223 222 220 219 218 217 218 220 221 222 222 224 227 229 231 231 230 229 228 225 223 222 223 224 226 227 228 228 225 223 220 215 210 209 210 210 209 206 204 202 199 199 196 189 183 184
234 231 129 127 118 124 140 116 101 213 247 320 16 117 236 291 265 250 284 298 296 293 281 272 271 275 270 259 250 240 240 243 244 247 246 238 225 217 219 220 219 221 222 219 219 220 220 222 223 224 224 223 222 221 220 220 220 221 223 225 227 228 230 233 234 234 235 235 234 234 232 230 228 226 227 228 228 229 231 230 226 223 222 220 220 219 217 215 210 205 202 201 199 197 194 192 189
241 198 127 133 128 130 128 104 100 1 357 313 311 128 201 272 273 296 325 295 290 280 270 275 281 279 274 266 254 244 247 245 234 234 238 233 226 224 225 225 224 223 222 220 220 221 221 222 224 225 225 224 223 223 223 224 224 225 226 226 228 230 233 236 237 238 238 237 237 238 238 236 234 232 230 231 232 231 231 230 228 226 225 224 223 221 219 215 210 206 203 201 202 201 201 199 195
195 140 99 76 75 81 80 94 112 41 3 254 233 179 201 268 284 305 335 247 260 266 272 275 277 279 275 271 268 264 261 247 225 234 249 245 237 235 232 230 231 227 224 224 223 223 223 223 224 224 225 225 225 224 225 225 226 226 226 227 228 230 233 235 237 238 238 238 238 239 240 241 240 236 234 234 234 233 231 229 229 226 225 223 220 217 214 211 209 208 206 204 205 205 204 204 202
129 97 64 44 29 36 45 56 86 68 291 255 224 194 194 273 279 258 221 218 226 249 287 294 294 296 286 276 276 278 280 280 268 278 319 314 246 239 229 226 230 228 225 224 223 223 224 224 224 224 226 226 225 225 225 226 226 226 227 228 230 231 232 233 234 234 234 234 235 237 239 240 239 234 233 233 230 229 228 227 227 225 222 221 219 215 211 211 212 211 209 208 207 208 208 207 205
98 81 72 57 349 9 19 359 43 131 253 266 270 216 161 235 260 261 253 254 240 226 262 298 310 304 297 295 286 280 285 301 325 336 349 18 81 196 219 222 226 225 222 222 222 223 224 224 224 224 225 225 226 226 226 226 227 227 229 230 231 233 233 233 233 233 233 232 233 235 235 235 236 232 229 228 226 226 226 222 221 222 221 221 221 218 215 215 216 215 213 211 210 211 211 208 205
77 92 95 89 333 4 350 309 4 230 246 273 312 316 190 235 247 263 269 265 246 217 231 283 296 280 280 288 280 276 279 282 285 277 283 291 227 200 214 221 224 224 223 222 222 222 223 224 224 225 226 226 225 226 226 227 227 228 230 231 233 234 235 235 236 236 235 235 234 234 233 232 232 230 227 226 224 225 226 223 220 219 221 222 222 221 220 219 218 217 216 214 212 212 212 209 208
128 138 131 132 134 123 263 271 276 265 264 299 326 284 253 278 265 244 248 254 237 213 237 266 263 248 258 275 284 294 293 280 266 252 252 260 243 219 215 222 226 226 225 224 223 223 224 225 225 226 228 228 226 226 227 227 229 230 231 233 235 235 236 237 238 238 238 238 237 236 237 236 234 233 231 228 225 223 225 226 226 227 226 224 223 224 225 225 222 220 218 215 213 213 213 212 212
176 155 135 150 158 162 209 217 218 254 283 301 307 263 201 221 274 252 246 268 278 243 260 278 263 248 266 290 292 290 279 269 266 261 252 254 252 237 225 228 230 229 228 226 225 225 225 226 227 228 229 228 227 226 227 228 230 231 233 235 236 237 238 239 240 240 240 240 240 240 241 243 242 241 239 234 230 227 228 228 228 229 229 228 228 229 228 227 224 221 219 216 216 215 215 214 213
230 127 109 177 187 153 157 195 181 186 309 290 254 236 213 207 276 276 262 281 297 300 306 317 299 290 321 305 280 265 263 262 262 264 259 255 252 245 238 237 236 233 231 229 228 227 227 229 230 231 232 231 229 229 229 230 231 233 234 236 238 239 239 240 241 241 241 242 244 245 246 247 248 248 246 241 236 232 231 232 231 229 229 229 230 229 227 225 224 221 219 218 217 216 215 215 214
176 141 179 220 177 124 115 246 83 80 258 269 218 249 281 331 288 280 282 283 295 312 309 303 292 299 317 293 269 254 258 262 254 246 246 251 249 246 244 242 238 234 232 232 232 231 231 233 232 233 234 232 232 232 232 233 233 233 236 237 239 240 240 241 242 242 243 244 247 248 249 251 251 250 248 243 240 236 231 231 233 233 231 228 227 227 226 225 224 222 220 219 218 216 215 215 215
128 181 210 200 88 87 108 201 345 35 248 271 260 246 278 319 272 304 17 275 264 284 300 305 301 299 295 282 272 259 252 260 262 249 245 253 252 250 247 243 240 238 237 237 237 237 236 236 236 235 235 234 234 235 234 234 234 235 238 239 240 240 241 243 244 245 246 246 246 246 246 249 249 248 249 245 241 240 236 232 232 233 232 228 226 226 226 225 224 223 222 221 219 217 214 216 218
128 186 183 119 122 197 113 163 204 179 243 276 285 266 259 219 228 336 79 196 225 254 282 292 285 279 278 276 274 276 272 272 274 262 250 248 245 245 244 243 245 244 244 244 243 242 239 238 238 238 239 240 239 239 238 237 237 238 241 242 242 243 244 245 246 247 247 245 245 244 244 246 246 246 248 247 243 242 240 237 235 234 233 230 226 225 225 225 223 223 222 221 220 219 217 217 218
69 115 130 105 147 173 165 164 166 170 209 258 296 299 259 221 201 167 180 215 223 246 267 269 262 257 256 260 271 290 286 265 262 250 239 239 241 243 243 249 256 256 254 252 247 245 242 241 241 240 241 241 240 241 240 240 239 240 242 243 244 244 245 246 247 247 247 246 245 244 243 244 245 245 246 247 247 244 242 241 239 238 235 232 229 227 227 226 224 224 224 222 221 220 218 218 218
153 170 178 180 111 111 165 182 127 140 168 202 276 283 262 241 185 172 195 220 225 232 249 260 265 263 260 260 264 277 278 275 278 262 244 249 257 263 266 266 267 266 262 257 251 249 247 244 243 241 241 241 240 241 241 242 243 242 243 243 244 245 245 246 247 247 248 247 245 244 243 243 244 245 246 246 246 245 245 244 244 243 239 235 232 229 228 227 225 225 225 223 222 220 218 218 217
173 184 196 189 164 131 160 235 254 121 169 181 182 274 271 243 178 184 195 207 219 218 219 242 264 265 267 269 257 257 268 278 283 277 269 271 282 297 297 279 270 266 262 257 253 250 248 246 244 242 242 242 242 242 243 244 244 243 244 245 245 246 247 247 247 247 248 247 245 243 243 242 243 244 245 246 246 245 247 247 247 247 242 238 235 231 228 226 225 225 224 223 222 220 217 216 215